Overview Statistics Trail Chart Weather Telemetry Raw packets
 

This is the latest recevied weather packets stored in our database for station/object ED4YAF-13. If no packets are shown the sender has not sent any weather packets the latest 10 day(s).

<< 8 9 10 11 12 13 14 >>
Time Temp. Humidity Pressure Rain* Wind** Luminosity Snow
1788380858 21.11° C 38% 1019.8 hPa - - - -
1788379057 21.67° C 35% 1018.9 hPa - - - -
1788378157 21.67° C 34% 1018.6 hPa - - - -
1788377243 22.22° C 34% 1018.2 hPa - - - -
1788376339 22.22° C 34% 1018 hPa - - - -
1788375410 22.22° C 34% 1017.7 hPa - - - -
1788373769 23.33° C 31% 1016.8 hPa - - - -
1788372955 24.44° C 29% 1016.1 hPa - - - -
1788372869 24.44° C 29% 1016.1 hPa - - - -
1788371969 25.56° C 27% 1015.6 hPa - - - -
1788371045 26.11° C 27% 1015.2 hPa - - - -
1788370142 26.11° C 26% 1014.9 hPa - - - -
1788368335 27.22° C 26% 1014.1 hPa - - - -
1788366542 27.22° C 24% 1013.9 hPa - - - -
1788365642 27.22° C 22% 1013.7 hPa - - - -
1788364738 27.78° C 21% 1013.6 hPa - - - -
1788363897 28.33° C 25% 1013.4 hPa - - - -
1788363838 28.33° C 25% 1013.4 hPa - - - -
1788362938 28.33° C 25% 1013.3 hPa - - - -
1788362076 28.33° C 25% 1013.4 hPa - - - -
1788362038 28.33° C 25% 1013.4 hPa - - - -
1788361138 29.44° C 23% 1012.8 hPa - - - -
1788360238 28.89° C 25% 1013.1 hPa - - - -
1788359331 28.89° C 25% 1013.1 hPa - - - -
1788358422 28.89° C 24% 1013.3 hPa - - - -

* Rain since midnight (hover to see other rain measurements)
** Current wind speed in m/s (hover to see current wind gust speed)